Theta_e
294 288 286 289 289 288 288 286 285 287 291 290 289 289 291 294 292 291 292 292 293 295 300 297 299 301 307 312 315 320 322 326 327 324 324 326 326 327 328 332 332 332 331 328
290 286 290 292 291 289 287 285 284 287 291 289 287 289 291 292 293 293 293 292 293 293 296 298 298 297 300 309 314 318 321 325 326 328 328 328 327 319 325 324 327 331 330 329
287 290 293 293 290 289 287 285 285 285 287 286 286 284 286 290 291 293 294 294 293 294 294 295 296 296 297 301 309 315 321 323 325 327 321 312 311 310 313 313 322 328 329 328
290 293 291 289 289 289 285 289 288 287 284 280 285 278 284 288 290 291 292 289 291 293 294 295 296 295 295 299 304 313 318 321 323 324 322 322 321 319 320 324 320 314 320 327
288 289 289 288 289 290 287 290 288 287 284 282 282 280 283 285 288 289 291 291 294 295 292 295 297 298 297 297 299 305 311 317 320 321 322 320 321 321 311 307 310 309 312 316
289 292 291 291 291 290 292 290 288 286 283 277 282 280 280 283 286 288 291 293 293 295 295 295 296 298 298 298 297 301 306 309 312 317 317 317 318 312 303 302 305 305 306 314
288 288 290 292 289 291 289 284 277 276 276 276 280 279 282 288 289 289 291 292 293 293 294 295 296 296 296 296 298 298 301 303 305 309 311 310 313 308 306 305 307 302 303 304
284 282 289 292 290 288 286 284 278 273 274 276 281 279 285 289 291 292 291 293 293 295 296 296 296 296 296 297 297 299 299 299 301 302 304 305 307 308 308 305 305 305 306 306
284 284 289 290 291 292 287 283 287 281 271 275 279 282 289 291 289 291 293 294 295 296 296 296 297 297 297 297 298 298 299 299 299 300 301 302 303 304 305 302 304 305 304 302
290 283 287 288 291 290 288 290 283 281 272 271 277 278 282 287 290 292 292 293 294 296 297 297 297 297 298 298 298 297 298 298 299 299 299 300 301 302 302 301 302 303 302 300
290 287 283 287 286 286 286 284 285 285 281 275 272 279 286 288 290 290 291 293 293 294 295 297 297 297 296 296 297 297 297 298 298 298 298 298 299 300 301 302 303 303 301 299
292 287 280 283 286 288 286 286 286 280 278 278 279 280 290 290 290 292 292 293 293 293 295 295 295 295 295 295 295 296 297 297 298 298 298 298 299 299 299 301 302 299 300 297
293 286 277 282 286 287 284 286 286 285 281 278 276 280 289 290 292 293 293 293 293 294 295 295 296 297 298 296 295 295 295 296 297 297 297 297 297 297 298 298 298 296 297 294
296 287 283 280 283 287 284 285 288 286 278 281 282 285 288 291 293 295 295 294 293 294 295 295 296 296 297 297 295 294 294 295 296 296 296 295 296 297 297 296 296 295 294 294
293 282 285 287 287 288 287 286 287 286 286 282 284 286 289 292 293 294 293 294 294 294 294 294 294 294 294 295 295 296 296 295 294 294 294 295 296 295 294 293 292 291 291 293
291 283 285 281 286 287 283 285 286 286 287 287 287 287 293 293 292 292 292 292 292 292 294 294 294 294 293 293 293 294 293 292 292 291 290 292 291 290 290 289 289 289 288 288
287 284 279 273 281 280 274 281 284 284 285 287 283 288 290 289 290 290 290 290 291 292 293 293 293 293 292 292 292 291 290 288 286 286 287 287 286 286 287 288 287 287 287 286
282 279 276 269 271 269 280 282 283 285 286 287 287 288 288 288 288 290 292 289 291 292 292 293 292 291 291 290 290 288 286 285 285 284 284 284 285 285 285 284 285 285 285 284
286 282 275 270 265 274 279 280 280 280 280 284 283 284 285 286 285 286 291 291 291 291 292 292 292 291 290 289 288 284 284 285 284 285 284 283 283 284 284 284 283 282 280 278
286 286 280 266 269 264 275 280 282 283 274 284 286 285 285 284 280 282 288 289 290 291 291 290 290 289 288 288 285 283 283 283 283 284 284 283 282 281 282 283 283 281 277 280
280 281 279 272 273 272 279 282 283 272 275 282 284 285 283 283 285 287 288 289 288 288 289 289 288 288 288 287 283 282 282 281 283 282 281 281 281 280 279 278 277 275 275 277
275 274 271 275 274 271 282 280 278 281 283 285 285 286 286 287 287 287 287 286 285 285 286 286 285 285 285 283 280 280 280 281 280 279 279 279 278 280 281 273 273 275 280 280
271 276 272 275 276 283 282 283 286 286 283 283 285 286 285 285 285 285 285 285 285 284 284 284 281 281 282 278 276 278 279 279 278 276 277 277 276 278 276 276 279 280 280 279
276 279 275 275 278 279 281 282 285 284 286 285 284 284 284 283 284 283 283 283 284 284 282 278 276 278 279 275 276 275 278 277 273 273 274 274 275 275 274 279 279 280 279 278
278 279 275 275 279 279 281 282 283 283 283 283 283 283 282 282 282 282 281 281 282 282 279 275 277 278 278 275 273 271 275 278 277 273 273 274 272 271 274 274 274 274 275 278
278 277 275 273 279 280 280 282 282 281 280 280 280 280 281 281 281 281 281 280 279 280 278 275 274 273 274 271 271 269 268 272 276 277 279 279 273 274 277 278 279 283 283 283
Wind_Speed
2 4 7 11 7 4 5 3 2 2 2 4 7 7 11 11 7 9 11 10 11 12 14 7 10 12 10 9 11 14 13 15 10 6 9 9 11 8 8 10 14 15 15 15
6 4 7 4 4 4 3 3 3 2 1 3 4 11 11 8 11 8 10 11 13 8 9 11 9 8 11 17 15 14 14 15 14 11 10 8 7 4 8 6 9 14 16 16
7 4 7 5 4 6 3 5 4 4 2 2 3 10 6 5 4 6 9 10 7 11 11 9 7 9 8 10 13 15 17 16 15 14 4 4 4 3 2 4 8 10 14 16
3 2 5 4 4 5 5 4 2 3 4 4 3 8 6 6 9 8 12 5 9 9 7 7 8 7 9 14 10 13 12 13 14 12 11 14 12 12 10 10 6 5 6 11
7 4 4 4 5 5 6 3 2 2 3 2 4 1 9 4 8 10 10 4 6 6 0 3 6 7 8 6 7 6 5 8 10 13 14 12 13 9 2 3 5 5 5 5
4 1 4 7 3 2 7 6 8 5 3 3 7 7 7 4 5 1 4 6 8 9 9 9 7 8 7 5 3 3 6 4 5 9 10 13 14 8 4 4 5 5 5 7
1 1 0 3 6 4 5 6 2 4 3 7 1 2 9 8 5 2 6 7 9 8 8 8 10 10 8 9 6 1 3 4 5 7 8 9 10 9 11 9 8 6 6 5
7 4 8 5 7 10 7 8 7 7 4 5 2 6 7 4 5 6 5 6 4 8 6 7 6 5 7 8 8 4 3 6 6 7 8 7 7 7 7 7 6 7 8 8
6 5 1 2 3 7 5 5 6 7 2 4 5 6 10 8 2 5 6 7 9 8 7 7 8 6 4 1 4 4 4 5 5 7 6 7 7 8 8 7 7 7 8 6
7 3 1 1 3 4 5 7 4 3 3 5 4 4 7 5 7 11 10 8 8 9 10 9 8 8 6 4 3 3 4 5 5 6 5 5 7 7 6 6 10 9 8 8
7 5 1 3 6 10 3 3 2 5 5 6 1 7 7 3 10 8 5 7 6 7 7 7 7 7 8 8 8 7 6 6 6 6 6 7 7 7 7 9 10 11 8 10
3 5 5 6 2 3 3 6 6 6 5 3 4 7 4 11 8 6 6 7 7 5 7 6 5 6 6 8 8 8 6 7 7 6 6 7 7 7 8 10 10 7 10 8
6 1 3 5 4 2 2 2 2 5 4 7 5 6 5 9 6 6 9 6 5 7 10 9 11 13 14 10 8 8 7 8 7 6 6 7 8 7 9 8 6 7 8 8
8 3 4 7 4 4 4 1 3 4 4 5 13 10 7 9 12 16 15 8 7 7 8 9 10 11 11 12 9 9 8 7 8 6 7 8 9 9 8 7 7 7 8 8
4 4 3 3 4 2 4 4 5 6 4 5 1 11 4 8 10 10 7 8 8 8 8 8 8 8 8 10 11 11 10 10 8 7 7 10 9 7 6 7 7 7 7 8
1 5 3 0 3 6 4 9 8 6 5 9 8 21 11 10 5 6 8 7 6 6 6 7 8 9 10 9 9 9 7 8 9 9 9 9 8 7 8 7 7 7 7 7
4 6 3 3 3 4 7 10 13 7 6 8 11 17 6 5 4 4 4 2 2 4 5 6 7 7 8 9 9 11 11 8 7 8 8 8 8 8 8 8 7 8 8 6
7 6 4 4 3 3 4 2 1 11 10 9 9 5 3 3 5 7 7 1 5 8 7 8 5 6 6 5 8 9 10 10 8 7 6 6 7 9 8 7 7 7 5 6
4 6 4 5 5 7 10 6 7 8 7 5 5 2 3 7 6 2 7 4 3 6 8 7 7 6 7 7 7 7 11 10 10 10 7 5 6 9 8 8 7 6 4 3
1 3 6 3 6 11 6 1 3 6 8 5 6 4 2 2 4 4 3 3 7 7 7 8 9 6 6 7 6 7 10 9 12 10 11 10 7 5 6 6 7 3 3 5
5 3 12 6 5 9 8 5 2 6 8 5 3 3 3 3 6 7 5 6 4 5 8 8 8 8 10 7 7 9 8 10 9 10 10 8 9 9 6 4 2 2 3 4
9 8 5 4 5 13 6 4 10 6 3 6 6 6 5 6 7 8 9 7 7 8 8 6 7 9 7 6 4 8 9 8 7 8 9 9 7 6 5 4 5 1 2 0
2 8 8 10 9 4 3 5 5 5 4 3 3 2 2 5 6 8 10 12 10 6 6 5 5 10 12 5 2 9 8 8 9 7 8 7 8 7 5 4 5 3 1 2
4 4 3 5 6 5 1 2 5 3 4 2 1 4 5 9 9 8 8 11 10 9 6 3 4 8 13 4 5 6 8 7 6 7 6 5 5 6 4 4 2 2 2 3
6 7 5 3 4 1 2 3 6 4 2 5 7 8 9 8 10 7 7 7 8 8 5 3 7 9 11 6 6 5 7 9 10 6 5 4 3 3 4 4 3 2 3 3
6 8 6 5 5 4 5 6 3 5 6 5 4 6 3 4 8 5 9 6 6 10 6 7 7 8 10 6 7 6 5 7 9 9 7 6 3 3 3 3 3 4 6 6
Wind_Direction
22 92 182 202 186 135 138 142 180 239 190 156 229 258 264 278 291 263 258 253 254 244 257 231 232 220 211 214 201 205 196 204 184 179 186 195 197 192 197 201 198 199 199 193
44 219 211 167 181 184 208 180 250 295 83 171 279 269 261 251 256 237 247 253 247 252 264 262 230 216 208 214 207 204 201 198 197 199 203 206 195 193 203 196 197 200 200 198
157 228 144 167 173 145 165 164 196 204 346 300 338 295 311 293 252 273 254 249 257 244 259 275 280 232 227 218 206 204 202 198 200 198 149 79 63 52 162 196 202 205 200 199
216 261 133 153 183 137 184 207 185 158 80 240 50 286 305 271 293 285 285 321 279 269 265 268 276 271 227 229 216 213 206 196 196 182 183 196 205 211 217 219 208 187 195 200
233 190 156 151 195 147 220 149 135 97 112 31 329 67 275 303 278 288 303 324 30 13 231 318 309 297 285 271 234 238 207 189 185 185 191 197 212 219 170 152 169 177 194 205
176 309 154 185 95 153 143 76 44 53 72 297 220 167 291 226 220 346 18 45 18 6 3 354 339 351 346 353 292 212 187 191 177 187 194 200 212 199 159 172 195 195 194 207
45 241 136 136 80 34 78 82 352 347 358 230 8 121 241 261 233 309 64 23 10 9 18 1 355 342 341 343 343 298 207 219 196 195 198 199 208 188 198 193 202 185 198 211
153 245 171 195 174 175 183 153 157 201 206 274 294 241 246 248 263 41 62 113 60 8 353 5 336 351 349 347 342 337 227 229 208 206 216 208 206 205 211 202 199 208 210 213
152 249 143 133 142 143 194 192 178 101 39 51 232 292 305 327 54 94 78 26 18 355 347 354 350 9 354 313 249 252 259 266 242 232 215 211 207 210 207 201 203 211 210 204
200 141 344 185 119 31 153 166 86 3 157 258 270 251 223 245 63 50 32 6 346 336 339 353 347 344 337 310 298 285 264 254 260 255 242 231 221 216 207 199 213 216 209 197
149 124 245 128 197 170 141 167 102 125 151 177 246 260 222 103 106 95 31 347 343 342 343 331 325 328 329 327 329 316 283 251 243 233 235 229 232 222 215 218 220 218 210 201
171 126 159 191 299 197 155 174 153 135 231 237 159 253 123 121 123 102 25 357 340 337 330 317 300 297 296 294 294 277 287 277 257 242 232 232 229 223 229 234 234 218 222 209
166 149 81 6 2 9 143 58 203 108 77 210 143 256 185 115 72 27 0 338 326 332 341 350 356 341 338 332 316 310 301 280 280 275 259 257 256 247 245 245 236 218 217 206
83 78 154 185 153 118 132 55 66 135 156 199 230 268 251 351 2 331 328 326 334 348 2 359 360 348 344 343 337 332 317 304 295 289 269 264 256 248 242 237 233 228 219 213
64 113 104 125 135 131 181 193 190 198 176 189 1 298 262 291 277 290 309 334 23 18 10 358 345 335 335 343 344 346 344 345 342 313 292 275 284 281 270 261 256 247 231 232
4 124 100 240 203 196 231 229 222 230 206 257 252 265 287 274 325 25 17 34 19 356 341 331 326 327 332 332 330 328 329 332 338 333 315 308 301 292 270 264 260 259 253 243
118 128 113 259 16 80 307 218 198 201 188 220 241 252 333 7 67 358 331 13 339 310 287 310 316 316 319 320 325 319 317 316 318 311 306 303 301 289 278 275 270 253 243 223
129 109 107 168 49 230 248 87 174 219 240 228 270 330 42 309 269 241 216 212 334 331 323 316 299 301 299 296 308 314 315 311 309 301 294 300 305 300 296 288 272 265 243 227
141 122 115 143 197 312 286 232 176 168 252 220 230 77 344 322 325 330 161 196 309 294 297 281 285 282 292 299 304 310 308 311 313 307 305 300 306 307 305 299 288 279 265 231
1 76 157 135 167 209 224 31 183 101 279 149 134 165 242 334 343 234 274 341 310 302 299 296 305 288 283 293 307 310 305 311 307 314 314 311 294 269 286 291 304 289 275 262
182 178 211 189 213 280 241 182 72 119 242 200 198 229 249 232 218 271 323 306 274 259 288 299 301 297 297 300 308 296 296 295 300 311 308 306 308 301 278 269 238 252 285 304
167 167 203 172 195 251 184 104 170 203 158 190 208 224 259 269 296 303 305 294 301 303 313 309 305 306 298 290 287 294 289 292 303 302 302 306 300 299 309 300 298 241 187 242
211 181 179 183 202 213 107 129 194 169 195 194 175 155 273 277 278 281 291 305 305 279 276 281 288 309 309 294 272 291 290 314 309 309 304 306 314 312 326 307 304 313 305 118
262 153 194 87 238 231 180 125 159 201 148 130 240 266 264 264 258 257 272 285 299 307 304 274 303 301 298 289 289 255 297 304 297 293 294 294 301 306 311 303 287 270 275 267
201 143 176 263 279 150 338 135 152 190 198 242 251 245 243 241 268 262 268 268 277 285 291 280 293 289 286 299 288 290 301 307 304 285 280 289 286 283 298 280 249 254 265 243
172 174 175 209 193 145 236 268 321 308 306 339 352 328 341 254 274 295 289 285 271 286 292 292 277 281 285 294 289 291 302 311 304 296 283 280 255 253 263 272 302 284 269 263